AFR1 LFPG-KJFK

Flight info

Callsign AFR1
Flight time N/A
Altitude 60000
Route ELCOB6K ELCOB DCT 493525N0041945W DCT 5022N00800W/M080F600 DCT DINIM NATF ALLRY/N0465F600 DCT 433354N0670000W DCT PLYMM PARCH4
Aircraft CONC/H-SDE2E3FGHIRYW/X

Departure

Time 2026-05-04 10:33
Airport Charles de Gaulle International Airport (LFPG)

Arrival

Time N/A
Airport John F. Kennedy International Airport (KJFK)
Time Latitude Longitude Altitude Speed Heading
2026-05-04 10:11 49.01359 2.54586 361 ft 0 kts 286°
2026-05-04 10:19 49.01355 2.54604 368 ft 4 kts 286°
2026-05-04 10:19 49.01347 2.54642 369 ft 4 kts 287°
2026-05-04 10:19 49.01341 2.54673 367 ft 4 kts 287°
2026-05-04 10:19 49.01335 2.54707 367 ft 4 kts 308°
2026-05-04 10:20 49.01319 2.54714 369 ft 4 kts 16°
2026-05-04 10:20 49.01295 2.54702 369 ft 4 kts 25°
2026-05-04 10:20 49.01286 2.54696 369 ft 4 kts 22°
2026-05-04 10:22 49.01290 2.54698 369 ft 2 kts 22°
2026-05-04 10:22 49.01308 2.54708 367 ft 4 kts 20°
2026-05-04 10:23 49.01335 2.54720 365 ft 5 kts 17°
2026-05-04 10:23 49.01386 2.54740 367 ft 10 kts 13°
2026-05-04 10:25 49.01809 2.54090 365 ft 19 kts 264°
2026-05-04 10:25 49.01797 2.53883 362 ft 20 kts 265°
2026-05-04 10:25 49.01785 2.53660 366 ft 22 kts 265°
2026-05-04 10:25 49.01771 2.53424 362 ft 22 kts 264°
2026-05-04 10:26 49.01757 2.53182 367 ft 24 kts 266°
2026-05-04 10:26 49.01746 2.52933 368 ft 24 kts 266°
2026-05-04 10:26 49.01731 2.52675 364 ft 25 kts 265°
2026-05-04 10:26 49.01717 2.52400 368 ft 27 kts 266°
2026-05-04 10:27 49.01703 2.52114 368 ft 28 kts 265°
2026-05-04 10:27 49.01685 2.51816 365 ft 29 kts 264°
2026-05-04 10:27 49.01666 2.51514 362 ft 24 kts 264°
2026-05-04 10:27 49.01659 2.51342 365 ft 13 kts 277°
2026-05-04 10:28 49.01725 2.51282 365 ft 11 kts 346°
2026-05-04 10:28 49.01807 2.51265 361 ft 13 kts 354°
2026-05-04 10:28 49.01899 2.51251 362 ft 14 kts 354°
2026-05-04 10:28 49.01945 2.51253 365 ft 0 kts
2026-05-04 10:29 49.01978 2.51267 365 ft 10 kts 20°
2026-05-04 10:30 49.02050 2.51352 366 ft 14 kts 44°
2026-05-04 10:30 49.02070 2.51430 365 ft 0 kts 80°
2026-05-04 10:32 49.02372 2.56906 463 ft 272 kts 85°
2026-05-04 10:33 49.02566 2.60046 1165 ft 322 kts 85°
2026-05-04 10:33 49.02807 2.63638 2463 ft 355 kts 84°
2026-05-04 10:33 49.03113 2.67504 4031 ft 377 kts 83°
2026-05-04 10:33 49.03474 2.71488 5600 ft 382 kts 82°
2026-05-04 10:34 49.03899 2.75417 7072 ft 354 kts 75°
2026-05-04 10:34 49.04895 2.78424 8529 ft 287 kts 43°
2026-05-04 10:34 49.06486 2.79988 9489 ft 281 kts 12°
2026-05-04 10:34 49.08471 2.80013 10109 ft 303 kts 341°
2026-05-04 10:35 49.10409 2.78371 10391 ft 343 kts 313°
2026-05-04 10:35 49.11807 2.75180 10635 ft 384 kts 292°
2026-05-04 10:35 49.12430 2.71228 11947 ft 383 kts 268°
2026-05-04 10:35 49.12028 2.67272 13597 ft 375 kts 252°
2026-05-04 10:36 49.11195 2.63541 15094 ft 367 kts 248°
2026-05-04 10:36 49.10282 2.59962 16630 ft 353 kts 246°
2026-05-04 10:36 49.09410 2.56646 18221 ft 324 kts 246°
2026-05-04 10:36 49.08590 2.53529 19518 ft 313 kts 246°
2026-05-04 10:37 49.07765 2.50390 20101 ft 330 kts 246°
2026-05-04 10:37 49.06874 2.47024 20078 ft 364 kts 246°
2026-05-04 10:37 49.05874 2.43282 20044 ft 397 kts 246°
2026-05-04 10:37 49.04781 2.39227 20016 ft 430 kts 246°
2026-05-04 10:39 49.01843 2.08044 23220 ft 521 kts 269°
2026-05-04 10:39 49.01913 2.02459 23726 ft 537 kts 269°
2026-05-04 10:39 49.01985 1.96684 24177 ft 546 kts 269°
2026-05-04 10:40 49.02059 1.90911 25230 ft 546 kts 268°
2026-05-04 10:40 49.02130 1.85056 25577 ft 559 kts 268°
2026-05-04 10:40 49.02198 1.79151 26578 ft 557 kts 268°
2026-05-04 10:40 49.02261 1.73209 27109 ft 567 kts 268°
2026-05-04 10:41 49.02318 1.67260 27478 ft 570 kts 268°
2026-05-04 10:41 49.02370 1.61208 27884 ft 573 kts 268°
2026-05-04 10:41 49.02417 1.55122 28089 ft 576 kts 267°
2026-05-04 10:41 49.02458 1.49054 28842 ft 568 kts 267°
2026-05-04 10:42 49.02493 1.43042 30033 ft 571 kts 267°
2026-05-04 10:42 49.02518 1.36932 30428 ft 580 kts 267°
2026-05-04 10:42 49.02533 1.30774 31231 ft 583 kts 266°
2026-05-04 10:42 49.02533 1.24564 32010 ft 590 kts 266°
2026-05-04 10:43 49.02710 1.18246 32621 ft 609 kts 276°
2026-05-04 10:44 49.08943 0.70116 35998 ft 710 kts 278°
2026-05-04 10:45 49.09859 0.62662 36421 ft 721 kts 278°
2026-05-04 10:45 49.10775 0.55184 36816 ft 733 kts 278°
2026-05-04 10:45 49.11715 0.47479 37192 ft 743 kts 278°
2026-05-04 10:45 49.12663 0.39675 37566 ft 754 kts 278°
2026-05-04 10:46 49.13620 0.31745 37897 ft 764 kts 278°
2026-05-04 10:46 49.14583 0.23720 38245 ft 774 kts 278°
2026-05-04 10:46 49.15555 0.15571 38550 ft 783 kts 278°
2026-05-04 10:46 49.16530 0.07344 38814 ft 792 kts 278°
2026-05-04 10:47 49.17511 -0.00983 39097 ft 800 kts 278°
2026-05-04 10:47 49.18496 -0.09405 39275 ft 810 kts 278°
2026-05-04 10:47 49.19470 -0.17926 39536 ft 818 kts 278°
2026-05-04 10:47 49.20420 -0.26374 39643 ft 820 kts 278°
2026-05-04 10:49 49.27156 -0.89143 42064 ft 892 kts 273°
2026-05-04 10:49 49.27250 -0.98569 42363 ft 904 kts 263°
2026-05-04 10:50 49.25951 -1.07988 42664 ft 913 kts 245°
2026-05-04 10:51 48.92383 -1.54983 42531 ft 1018 kts 195°
2026-05-04 10:52 48.85802 -1.58400 45445 ft 978 kts 207°
2026-05-04 10:52 48.79935 -1.63284 49288 ft 950 kts 213°
2026-05-04 10:52 48.74747 -1.69170 52261 ft 909 kts 222°
2026-05-04 10:54 48.57725 -2.22913 54116 ft 827 kts 282°
2026-05-04 10:54 48.59172 -2.31274 54120 ft 822 kts 293°
2026-05-04 10:56 48.87983 -2.69604 54088 ft 805 kts 330°
2026-05-04 10:56 48.92837 -2.73811 54101 ft 804 kts 330°
2026-05-04 10:57 49.02559 -2.82193 54102 ft 802 kts 330°
2026-05-04 10:57 49.12271 -2.90540 54109 ft 800 kts 330°
2026-05-04 10:58 49.21967 -2.98875 54102 ft 799 kts 330°
2026-05-04 10:58 49.26745 -3.03020 53904 ft 801 kts 328°
2026-05-04 10:58 49.31444 -3.07609 53630 ft 802 kts 318°
2026-05-04 10:58 49.35520 -3.13399 53357 ft 800 kts 306°
2026-05-04 10:59 49.38734 -3.20351 52958 ft 802 kts 295°
2026-05-04 10:59 49.41018 -3.28191 52295 ft 807 kts 287°
2026-05-04 10:59 49.42717 -3.36442 51616 ft 817 kts 285°
2026-05-04 10:59 49.44275 -3.44902 50919 ft 828 kts 284°
2026-05-04 11:00 49.45779 -3.53498 50253 ft 840 kts 284°
2026-05-04 11:01 49.56509 -4.17943 46921 ft 948 kts 283°
2026-05-04 11:02 49.58109 -4.27869 47177 ft 960 kts 283°
2026-05-04 11:02 49.59837 -4.37877 47432 ft 973 kts 287°
2026-05-04 11:05 49.91490 -5.86703 51304 ft 1096 kts 289°
2026-05-04 11:06 49.93993 -5.97914 51613 ft 1101 kts 289°
2026-05-04 11:06 49.96491 -6.09172 52014 ft 1105 kts 289°
2026-05-04 11:06 49.98989 -6.20486 52435 ft 1108 kts 289°
2026-05-04 11:06 50.01481 -6.31837 52847 ft 1111 kts 289°
2026-05-04 11:08 50.18730 -7.12257 55392 ft 1127 kts 288°
2026-05-04 11:10 50.35449 -7.93765 58372 ft 1126 kts 287°
2026-05-04 11:12 50.45736 -8.77796 60083 ft 1128 kts 280°
2026-05-04 11:12 50.47126 -8.89919 60071 ft 1130 kts 280°
2026-05-04 11:12 50.49884 -9.14264 60071 ft 1135 kts 280°
2026-05-04 11:13 50.52605 -9.38729 60076 ft 1139 kts 280°
2026-05-04 11:13 50.55266 -9.63142 60071 ft 1143 kts 280°
2026-05-04 11:16 50.68001 -10.87517 60083 ft 1161 kts 279°
2026-05-04 11:16 50.70414 -11.12732 60109 ft 1164 kts 279°
2026-05-04 11:17 50.72781 -11.38043 60100 ft 1167 kts 279°
2026-05-04 11:19 50.80521 -12.25599 60156 ft 1140 kts 278°
2026-05-04 11:19 50.81563 -12.38012 60153 ft 1140 kts 278°
2026-05-04 11:19 50.83579 -12.62930 60165 ft 1139 kts 278°
2026-05-04 11:20 50.85547 -12.87641 60176 ft 1139 kts 277°
2026-05-04 11:20 50.87456 -13.12504 60174 ft 1137 kts 278°
2026-05-04 11:22 50.94574 -14.11831 60213 ft 1135 kts 277°
2026-05-04 11:23 50.96218 -14.36727 60222 ft 1135 kts 276°
2026-05-04 11:24 51.02007 -15.11071 60072 ft 1133 kts 290°
2026-05-04 11:25 51.04710 -15.22814 60032 ft 1132 kts 293°
2026-05-04 11:25 51.07689 -15.34389 60142 ft 1131 kts 291°
2026-05-04 11:25 51.10488 -15.46092 60211 ft 1131 kts 290°
2026-05-04 11:27 51.33443 -16.52794 60236 ft 1131 kts 289°
2026-05-04 11:28 51.38416 -16.76477 60262 ft 1130 kts 289°
2026-05-04 11:28 51.43328 -17.00391 60272 ft 1130 kts 289°
2026-05-04 11:29 51.48217 -17.24315 60262 ft 1129 kts 288°
2026-05-04 11:29 51.53028 -17.48291 60270 ft 1127 kts 288°
2026-05-04 11:33 51.85312 -19.16893 60301 ft 1127 kts 287°
2026-05-04 11:33 51.89722 -19.41222 60288 ft 1126 kts 287°
2026-05-04 11:34 51.94100 -19.65576 60307 ft 1126 kts 287°
2026-05-04 11:34 51.98419 -19.89999 60315 ft 1127 kts 287°
2026-05-04 11:35 52.01192 -20.14808 60110 ft 1131 kts 272°
2026-05-04 11:35 52.01556 -20.40323 60276 ft 1129 kts 273°
2026-05-04 11:36 52.02457 -20.65768 60327 ft 1129 kts 275°
2026-05-04 11:36 52.03308 -20.86905 60343 ft 1129 kts 274°
2026-05-04 11:37 52.04360 -21.16505 60331 ft 1129 kts 274°
2026-05-04 11:37 52.05192 -21.41968 60351 ft 1129 kts 274°
2026-05-04 11:38 52.05842 -21.63157 60326 ft 1129 kts 274°
2026-05-04 11:38 52.06572 -21.88636 60354 ft 1128 kts 273°
2026-05-04 11:39 52.07351 -22.18236 60340 ft 1129 kts 273°
2026-05-04 11:41 52.09116 -23.03144 60380 ft 1128 kts 272°
2026-05-04 11:41 52.09503 -23.28635 60346 ft 1127 kts 272°
2026-05-04 11:42 52.09852 -23.53960 60396 ft 1128 kts 272°
2026-05-04 11:42 52.10138 -23.79452 60362 ft 1127 kts 271°
2026-05-04 11:43 52.10376 -24.04946 60407 ft 1128 kts 271°
2026-05-04 11:43 52.10548 -24.30454 60367 ft 1127 kts 271°
2026-05-04 11:44 52.10676 -24.55781 60414 ft 1127 kts 271°
2026-05-04 11:44 52.10731 -24.81284 60410 ft 1127 kts 270°
2026-05-04 11:45 52.10720 -25.06756 60417 ft 1126 kts 270°
2026-05-04 11:45 52.10701 -25.32244 60416 ft 1127 kts 270°
2026-05-04 11:46 52.10613 -25.57728 60414 ft 1126 kts 270°
2026-05-04 11:46 52.10447 -25.83020 60414 ft 1126 kts 270°
2026-05-04 11:47 52.10262 -26.08485 60430 ft 1126 kts 270°
2026-05-04 11:47 52.09987 -26.33949 60421 ft 1126 kts 269°
2026-05-04 11:48 52.09684 -26.59414 60420 ft 1126 kts 269°
2026-05-04 11:48 52.09308 -26.84694 60427 ft 1126 kts 269°
2026-05-04 11:49 52.08883 -27.10148 60435 ft 1126 kts 269°
2026-05-04 11:49 52.08411 -27.35576 60431 ft 1126 kts 269°
2026-05-04 11:50 52.07870 -27.61006 60418 ft 1125 kts 269°
2026-05-04 11:50 52.07277 -27.86418 60436 ft 1125 kts 268°
2026-05-04 11:51 52.06650 -28.11651 60421 ft 1125 kts 268°
2026-05-04 11:51 52.05939 -28.37050 60440 ft 1125 kts 268°
2026-05-04 11:52 52.05195 -28.62424 60405 ft 1125 kts 268°
2026-05-04 11:52 52.04384 -28.87804 60445 ft 1125 kts 268°
2026-05-04 11:53 52.03526 -29.13008 60437 ft 1125 kts 267°
2026-05-04 11:53 52.02620 -29.38369 60441 ft 1125 kts 267°
2026-05-04 11:55 52.01634 -30.39502 60406 ft 1123 kts 275°
2026-05-04 11:56 52.02756 -30.64800 60443 ft 1124 kts 274°
2026-05-04 11:56 52.03593 -30.89727 60423 ft 1124 kts 274°
2026-05-04 11:57 52.04454 -31.14908 60449 ft 1124 kts 274°
2026-05-04 11:57 52.05287 -31.40266 60442 ft 1124 kts 273°
2026-05-04 11:58 52.06013 -31.65643 60436 ft 1124 kts 273°
2026-05-04 11:58 52.06723 -31.91028 60441 ft 1124 kts 273°
2026-05-04 11:59 52.07348 -32.16413 60429 ft 1124 kts 273°
2026-05-04 11:59 52.07930 -32.41629 60447 ft 1124 kts 272°
2026-05-04 12:00 52.08463 -32.67015 60407 ft 1124 kts 272°
2026-05-04 12:00 52.08929 -32.92392 60446 ft 1123 kts 272°
2026-05-04 12:01 52.09356 -33.17813 60448 ft 1128 kts 272°
2026-05-04 12:02 52.10400 -34.07954 60424 ft 1153 kts 271°
2026-05-04 12:03 52.10581 -34.34086 60417 ft 1159 kts 271°
2026-05-04 12:03 52.10694 -34.60176 60393 ft 1160 kts 271°
2026-05-04 12:04 52.10733 -34.73206 60414 ft 1146 kts 271°
2026-05-04 12:04 52.10745 -34.86100 60405 ft 1136 kts 271°
2026-05-04 12:04 52.10750 -35.11756 60386 ft 1133 kts 270°
2026-05-04 12:05 52.10701 -35.37360 60396 ft 1132 kts 270°
2026-05-04 12:05 52.10591 -35.62790 60378 ft 1132 kts 270°
2026-05-04 12:06 52.10423 -35.88367 60381 ft 1130 kts 270°
2026-05-04 12:06 52.10207 -36.13916 60379 ft 1129 kts 270°
2026-05-04 12:07 52.09936 -36.39455 60369 ft 1129 kts 270°
2026-05-04 12:07 52.09603 -36.64804 60371 ft 1129 kts 269°
2026-05-04 12:08 52.09227 -36.90323 60339 ft 1129 kts 269°
2026-05-04 12:08 52.08784 -37.15862 60357 ft 1129 kts 269°
2026-05-04 12:09 52.08287 -37.41371 60368 ft 1129 kts 269°
2026-05-04 12:09 52.07750 -37.66725 60359 ft 1129 kts 268°
2026-05-04 12:10 52.07141 -37.92237 60335 ft 1129 kts 268°
2026-05-04 12:10 52.06477 -38.17731 60328 ft 1130 kts 268°
2026-05-04 12:11 52.05775 -38.43256 60337 ft 1131 kts 268°
2026-05-04 12:11 52.04997 -38.68616 60298 ft 1131 kts 268°
2026-05-04 12:12 52.04185 -38.93945 60312 ft 1131 kts 267°
2026-05-04 12:12 52.03306 -39.19455 60294 ft 1132 kts 267°
2026-05-04 12:14 51.98965 -40.21160 60243 ft 1131 kts 264°
2026-05-04 12:15 51.97350 -40.46547 60244 ft 1130 kts 265°
2026-05-04 12:15 51.95813 -40.71894 60249 ft 1130 kts 265°
2026-05-04 12:16 51.94252 -40.97065 60217 ft 1130 kts 264°
2026-05-04 12:16 51.92628 -41.22353 60199 ft 1128 kts 264°
2026-05-04 12:17 51.90955 -41.47629 60204 ft 1129 kts 264°
2026-05-04 12:17 51.89226 -41.72851 60185 ft 1124 kts 263°
2026-05-04 12:18 51.87399 -41.97786 60167 ft 1123 kts 263°
2026-05-04 12:18 51.85562 -42.22885 60168 ft 1123 kts 263°
2026-05-04 12:19 51.83642 -42.47942 60152 ft 1122 kts 263°
2026-05-04 12:19 51.81692 -42.72960 60094 ft 1122 kts 262°
2026-05-04 12:20 51.79663 -42.97985 60109 ft 1123 kts 262°
2026-05-04 12:20 51.77615 -43.22845 60098 ft 1125 kts 262°
2026-05-04 12:21 51.75480 -43.47882 60088 ft 1127 kts 262°
2026-05-04 12:21 51.73290 -43.72926 60060 ft 1127 kts 261°
2026-05-04 12:22 51.71064 -43.97945 60047 ft 1128 kts 261°
2026-05-04 12:22 51.68751 -44.23011 60059 ft 1133 kts 261°
2026-05-04 12:23 51.66419 -44.47972 60017 ft 1136 kts 261°
2026-05-04 12:23 51.63994 -44.73137 59993 ft 1137 kts 261°
2026-05-04 12:24 51.61519 -44.98265 60004 ft 1136 kts 260°
2026-05-04 12:24 51.59007 -45.23324 59970 ft 1133 kts 260°
2026-05-04 12:25 51.56443 -45.48163 59941 ft 1134 kts 260°
2026-05-04 12:25 51.53828 -45.73149 59917 ft 1135 kts 259°
2026-05-04 12:26 51.51149 -45.98109 59938 ft 1135 kts 259°
2026-05-04 12:26 51.48410 -46.23040 59899 ft 1135 kts 259°
2026-05-04 12:27 51.45642 -46.47783 59884 ft 1134 kts 259°
2026-05-04 12:27 51.42809 -46.72681 59901 ft 1136 kts 259°
2026-05-04 12:28 51.39904 -46.97553 59872 ft 1136 kts 259°
2026-05-04 12:28 51.36970 -47.22404 59840 ft 1136 kts 258°
2026-05-04 12:29 51.33981 -47.47048 59806 ft 1135 kts 258°
2026-05-04 12:29 51.30937 -47.71803 59791 ft 1136 kts 258°
2026-05-04 12:30 51.27834 -47.96555 59789 ft 1136 kts 258°
2026-05-04 12:30 51.24673 -48.21251 59775 ft 1135 kts 257°
2026-05-04 12:31 51.21479 -48.45924 59801 ft 1136 kts 257°
2026-05-04 12:31 51.18232 -48.70406 59772 ft 1137 kts 257°
2026-05-04 12:32 51.13246 -49.07318 59722 ft 1137 kts 257°
2026-05-04 12:33 51.09860 -49.31900 59741 ft 1137 kts 256°
2026-05-04 12:33 51.06439 -49.56303 59706 ft 1137 kts 256°
2026-05-04 12:34 51.02937 -49.80796 59671 ft 1137 kts 256°
2026-05-04 12:34 50.99194 -50.05171 59625 ft 1135 kts 249°
2026-05-04 12:34 50.96375 -50.16863 59518 ft 1134 kts 245°
2026-05-04 12:35 50.93246 -50.28339 59568 ft 1134 kts 246°
2026-05-04 12:35 50.87357 -50.51519 59604 ft 1134 kts 248°
2026-05-04 12:36 50.81732 -50.74661 59604 ft 1134 kts 248°
2026-05-04 12:36 50.76002 -50.97890 59601 ft 1134 kts 247°
2026-05-04 12:37 50.70214 -51.21058 59623 ft 1136 kts 247°
2026-05-04 12:37 50.64365 -51.44216 59579 ft 1138 kts 247°
2026-05-04 12:38 50.58508 -51.67172 59553 ft 1138 kts 246°
2026-05-04 12:38 50.52711 -51.89663 59537 ft 1137 kts 246°
2026-05-04 12:39 50.46197 -52.12258 59438 ft 1135 kts 239°
2026-05-04 12:39 50.38271 -52.33660 59513 ft 1136 kts 239°
2026-05-04 12:40 50.30567 -52.55251 59476 ft 1128 kts 239°
2026-05-04 12:40 50.26842 -52.65773 59514 ft 1116 kts 239°
2026-05-04 12:40 50.23094 -52.76342 59477 ft 1111 kts 239°
2026-05-04 12:41 50.15579 -52.97423 59466 ft 1114 kts 239°
2026-05-04 12:41 50.07985 -53.18553 59469 ft 1120 kts 239°
2026-05-04 12:42 50.00320 -53.39708 59438 ft 1125 kts 239°
2026-05-04 12:42 49.92635 -53.60743 59443 ft 1126 kts 239°
2026-05-04 12:43 49.84867 -53.81835 59411 ft 1128 kts 238°
2026-05-04 12:43 49.77031 -54.02940 59388 ft 1132 kts 238°
2026-05-04 12:43 49.73109 -54.13442 59351 ft 1120 kts 238°
2026-05-04 12:44 49.69232 -54.23787 59329 ft 1108 kts 238°
2026-05-04 12:44 49.61503 -54.44281 59340 ft 1103 kts 238°
2026-05-04 12:45 49.53797 -54.64547 59347 ft 1104 kts 238°
2026-05-04 12:45 49.45989 -54.84918 59321 ft 1107 kts 238°
2026-05-04 12:46 49.38130 -55.05255 59310 ft 1107 kts 238°
2026-05-04 12:46 49.30239 -55.25526 59291 ft 1107 kts 238°
2026-05-04 12:47 49.22359 -55.45612 59280 ft 1108 kts 237°
2026-05-04 12:47 49.14392 -55.65769 59300 ft 1108 kts 237°
2026-05-04 12:48 49.06386 -55.85866 59242 ft 1108 kts 237°
2026-05-04 12:48 48.98344 -56.05903 59268 ft 1110 kts 237°
2026-05-04 12:49 48.90303 -56.25784 59222 ft 1111 kts 237°
2026-05-04 12:49 48.82168 -56.45752 59204 ft 1111 kts 237°
2026-05-04 12:50 48.74001 -56.65650 59162 ft 1112 kts 237°
2026-05-04 12:50 48.65796 -56.85493 59172 ft 1112 kts 237°
2026-05-04 12:51 48.57550 -57.05284 59216 ft 1113 kts 236°
2026-05-04 12:51 48.49295 -57.24900 59164 ft 1116 kts 236°
2026-05-04 12:52 48.40955 -57.44609 59174 ft 1116 kts 236°
2026-05-04 12:52 48.32571 -57.64252 59133 ft 1115 kts 236°
2026-05-04 12:53 48.24169 -57.83814 59125 ft 1114 kts 236°
2026-05-04 12:53 48.15788 -58.03177 59100 ft 1114 kts 236°
2026-05-04 12:54 48.07327 -58.22587 59086 ft 1113 kts 235°
2026-05-04 12:54 47.98835 -58.41923 59092 ft 1113 kts 236°
2026-05-04 12:55 47.90311 -58.61208 59083 ft 1113 kts 236°
2026-05-04 12:55 47.81806 -58.80298 59073 ft 1114 kts 236°
2026-05-04 12:56 47.73218 -58.99456 59063 ft 1114 kts 235°
2026-05-04 12:56 47.64588 -59.18562 59078 ft 1114 kts 235°
2026-05-04 12:57 47.55930 -59.37604 59116 ft 1114 kts 235°
2026-05-04 12:57 47.47246 -59.56569 59098 ft 1113 kts 235°
2026-05-04 12:58 47.38599 -59.75324 59192 ft 1111 kts 235°
2026-05-04 12:58 47.29896 -59.94069 59172 ft 1106 kts 234°
2026-05-04 12:59 47.21201 -60.12675 59211 ft 1100 kts 234°
2026-05-04 12:59 47.12702 -60.30736 59257 ft 1102 kts 234°
2026-05-04 13:00 47.04000 -60.49112 59233 ft 1105 kts 234°
2026-05-04 13:00 46.95214 -60.67541 59266 ft 1101 kts 234°
2026-05-04 13:01 46.86441 -60.85818 59260 ft 1098 kts 234°
2026-05-04 13:01 46.77638 -61.04040 59317 ft 1098 kts 234°
2026-05-04 13:02 46.68892 -61.22033 59063 ft 1094 kts 234°
2026-05-04 13:02 46.64468 -61.31082 58752 ft 1100 kts 233°
2026-05-04 13:02 46.60022 -61.40149 58892 ft 1102 kts 234°
2026-05-04 13:03 46.51073 -61.58319 59023 ft 1108 kts 234°
2026-05-04 13:03 46.46576 -61.67407 59300 ft 1109 kts 233°
2026-05-04 13:03 46.42104 -61.76415 59523 ft 1094 kts 234°
2026-05-04 13:04 46.33218 -61.94205 59451 ft 1090 kts 233°
2026-05-04 13:04 46.24356 -62.11852 59502 ft 1093 kts 233°
2026-05-04 13:05 46.15403 -62.29575 59537 ft 1093 kts 233°
2026-05-04 13:05 46.06404 -62.47271 59486 ft 1093 kts 233°
2026-05-04 13:06 45.97394 -62.64875 59511 ft 1093 kts 233°
2026-05-04 13:06 45.88414 -62.82312 59549 ft 1092 kts 233°
2026-05-04 13:07 45.79359 -62.99791 59575 ft 1091 kts 233°
2026-05-04 13:07 45.70282 -63.17198 59576 ft 1094 kts 233°
2026-05-04 13:08 45.61128 -63.34649 59600 ft 1095 kts 233°
2026-05-04 13:08 45.52032 -63.51883 59617 ft 1095 kts 233°
2026-05-04 13:09 45.42851 -63.69171 59631 ft 1093 kts 233°
2026-05-04 13:09 45.33649 -63.86393 59617 ft 1092 kts 233°
2026-05-04 13:10 45.24458 -64.03493 59672 ft 1089 kts 233°
2026-05-04 13:10 45.15304 -64.20420 59686 ft 1088 kts 232°
2026-05-04 13:11 45.06072 -64.37392 59719 ft 1087 kts 232°
2026-05-04 13:11 44.96816 -64.54305 59712 ft 1088 kts 232°
2026-05-04 13:12 44.87538 -64.71161 59757 ft 1088 kts 232°
2026-05-04 13:12 44.78223 -64.87984 59763 ft 1089 kts 232°
2026-05-04 13:13 44.68946 -65.04639 59810 ft 1089 kts 232°
2026-05-04 13:13 44.59573 -65.21371 59777 ft 1091 kts 232°
2026-05-04 13:14 44.50160 -65.38075 59819 ft 1092 kts 232°
2026-05-04 13:14 44.40717 -65.54735 59795 ft 1092 kts 232°
2026-05-04 13:15 44.31391 -65.71095 59831 ft 1091 kts 232°
2026-05-04 13:15 44.21992 -65.87487 59817 ft 1088 kts 232°
2026-05-04 13:16 44.12532 -66.03896 59851 ft 1085 kts 232°
2026-05-04 13:16 44.03063 -66.20225 59854 ft 1085 kts 232°
2026-05-04 13:17 43.93573 -66.36500 59866 ft 1084 kts 231°
2026-05-04 13:17 43.84126 -66.52611 59858 ft 1084 kts 231°
2026-05-04 13:18 43.74594 -66.68775 59861 ft 1084 kts 231°
2026-05-04 13:18 43.65036 -66.84894 59893 ft 1085 kts 231°
2026-05-04 13:19 43.55502 -67.01042 59863 ft 1084 kts 235°
2026-05-04 13:19 43.51361 -67.09544 59754 ft 1082 kts 241°
2026-05-04 13:19 43.47767 -67.18579 59768 ft 1069 kts 243°
2026-05-04 13:20 43.40674 -67.36372 59882 ft 1058 kts 240°
2026-05-04 13:20 43.33263 -67.53869 59901 ft 1059 kts 240°
2026-05-04 13:21 43.25777 -67.71282 59900 ft 1059 kts 240°
2026-05-04 13:21 43.18269 -67.88742 59891 ft 1062 kts 240°
2026-05-04 13:22 43.10818 -68.05991 59928 ft 1065 kts 240°
2026-05-04 13:22 43.03218 -68.23486 59892 ft 1074 kts 240°
2026-05-04 13:23 42.95528 -68.41082 59912 ft 1083 kts 240°
2026-05-04 13:23 42.87754 -68.58766 59922 ft 1091 kts 239°
2026-05-04 13:24 42.79948 -68.76415 59913 ft 1099 kts 239°
2026-05-04 13:24 42.72009 -68.94258 59939 ft 1106 kts 239°
2026-05-04 13:25 42.59950 -69.21154 59939 ft 1116 kts 239°
2026-05-04 13:25 42.51823 -69.39146 59882 ft 1122 kts 239°
2026-05-04 13:26 42.43722 -69.56948 59938 ft 1105 kts 239°
2026-05-04 13:26 42.35686 -69.74489 59905 ft 1095 kts 239°
2026-05-04 13:27 42.27639 -69.91976 59289 ft 1097 kts 239°
2026-05-04 13:27 42.23606 -70.00703 57837 ft 1091 kts 238°
2026-05-04 13:27 42.19607 -70.09313 56337 ft 1075 kts 238°
2026-05-04 13:28 42.15664 -70.17782 54858 ft 1059 kts 238°
2026-05-04 13:28 42.11826 -70.26006 53380 ft 1042 kts 238°
2026-05-04 13:28 42.07997 -70.34189 51851 ft 1024 kts 238°
2026-05-04 13:28 42.04258 -70.42239 50351 ft 1005 kts 240°
2026-05-04 13:29 42.01060 -70.50475 48725 ft 984 kts 247°
2026-05-04 13:29 41.98540 -70.58934 47148 ft 964 kts 250°
2026-05-04 13:29 41.96191 -70.67256 45661 ft 942 kts 249°
2026-05-04 13:29 41.93760 -70.75321 44164 ft 919 kts 248°
2026-05-04 13:30 41.91333 -70.83141 42670 ft 893 kts 247°
2026-05-04 13:30 41.88922 -70.90673 41356 ft 864 kts 247°
2026-05-04 13:30 41.86584 -70.97924 40290 ft 830 kts 247°
2026-05-04 13:30 41.84383 -71.04790 39310 ft 794 kts 247°
2026-05-04 13:31 41.82254 -71.11433 38283 ft 757 kts 247°
2026-05-04 13:31 41.80224 -71.17757 37209 ft 720 kts 247°
2026-05-04 13:31 41.78272 -71.23827 36203 ft 701 kts 247°
2026-05-04 13:31 41.76388 -71.29668 35234 ft 664 kts 248°
2026-05-04 13:32 41.74602 -71.35185 34303 ft 628 kts 248°
2026-05-04 13:32 41.72865 -71.40373 33241 ft 594 kts 243°
2026-05-04 13:32 41.70564 -71.44801 32119 ft 574 kts 228°
2026-05-04 13:32 41.67552 -71.48270 31128 ft 570 kts 220°
2026-05-04 13:33 41.64413 -71.51439 30252 ft 560 kts 222°
2026-05-04 13:33 41.61485 -71.54685 29305 ft 550 kts 225°
2026-05-04 13:33 41.58670 -71.58110 28330 ft 547 kts 225°
2026-05-04 13:33 41.55830 -71.61494 27397 ft 546 kts 224°
2026-05-04 13:34 41.52982 -71.64815 26481 ft 542 kts 224°
2026-05-04 13:34 41.50153 -71.68079 25590 ft 535 kts 224°
2026-05-04 13:34 41.47347 -71.71303 24774 ft 530 kts 224°
2026-05-04 13:34 41.44560 -71.74498 24005 ft 526 kts 224°
2026-05-04 13:35 41.41808 -71.77645 23905 ft 517 kts 224°
2026-05-04 13:35 41.36366 -71.83864 23994 ft 521 kts 224°
2026-05-04 13:35 41.33615 -71.87005 24000 ft 521 kts 224°
2026-05-04 13:36 41.30865 -71.90142 24000 ft 521 kts 224°
2026-05-04 13:36 41.28106 -71.93265 23999 ft 522 kts 223°
2026-05-04 13:36 41.25246 -71.96263 23912 ft 526 kts 220°
2026-05-04 13:36 41.22261 -71.99121 23448 ft 529 kts 219°
2026-05-04 13:37 41.19295 -72.01965 22990 ft 523 kts 219°
2026-05-04 13:37 41.16415 -72.04773 22563 ft 520 kts 219°
2026-05-04 13:37 41.13512 -72.07618 22125 ft 517 kts 220°
2026-05-04 13:37 41.11567 -72.09544 21835 ft 514 kts 222°
2026-05-04 13:38 41.08618 -72.14056 21113 ft 501 kts 245°
2026-05-04 13:38 41.07430 -72.18339 20561 ft 492 kts 257°
2026-05-04 13:38 41.06646 -72.22728 20145 ft 489 kts 257°
2026-05-04 13:38 41.05712 -72.27054 19736 ft 488 kts 253°
2026-05-04 13:39 41.04584 -72.31284 19338 ft 485 kts 252°
2026-05-04 13:39 41.03476 -72.35485 18889 ft 482 kts 253°
2026-05-04 13:39 41.02425 -72.39632 18409 ft 481 kts 253°
2026-05-04 13:39 41.01405 -72.43761 17879 ft 458 kts 253°
2026-05-04 13:40 41.00447 -72.47672 17252 ft 436 kts 253°
2026-05-04 13:40 40.99528 -72.51401 16609 ft 418 kts 253°
2026-05-04 13:40 40.98639 -72.54995 15958 ft 406 kts 253°
2026-05-04 13:40 40.97763 -72.58535 15199 ft 404 kts 253°
2026-05-04 13:41 40.96894 -72.62047 14437 ft 399 kts 252°
2026-05-04 13:41 40.96032 -72.65526 13569 ft 396 kts 252°
2026-05-04 13:41 40.95178 -72.68966 12628 ft 390 kts 252°
2026-05-04 13:42 40.93520 -72.75477 11941 ft 353 kts 252°
2026-05-04 13:42 40.92758 -72.78447 11878 ft 331 kts 248°
2026-05-04 13:42 40.91470 -72.80925 11359 ft 333 kts 222°
2026-05-04 13:42 40.89570 -72.82684 10850 ft 330 kts 214°
2026-05-04 13:43 40.87670 -72.84256 10774 ft 313 kts 217°
2026-05-04 13:43 40.85928 -72.85901 10520 ft 303 kts 221°
2026-05-04 13:43 40.84319 -72.87626 10262 ft 294 kts 222°
2026-05-04 13:43 40.82750 -72.89310 10030 ft 287 kts 221°
2026-05-04 13:44 40.81236 -72.90867 10003 ft 272 kts 220°
2026-05-04 13:44 40.79761 -72.92359 9978 ft 268 kts 220°
2026-05-04 13:44 40.78264 -72.93870 9643 ft 271 kts 220°
2026-05-04 13:44 40.76774 -72.95371 9237 ft 268 kts 220°
2026-05-04 13:45 40.75293 -72.96865 8846 ft 267 kts 221°
2026-05-04 13:45 40.73833 -72.98369 8465 ft 265 kts 221°
2026-05-04 13:45 40.72383 -72.99853 8088 ft 263 kts 221°
2026-05-04 13:45 40.70937 -73.01317 7710 ft 261 kts 221°
2026-05-04 13:46 40.69666 -73.02961 7329 ft 254 kts 245°
2026-05-04 13:46 40.69304 -73.05160 6982 ft 252 kts 269°
2026-05-04 13:46 40.69369 -73.07466 6616 ft 252 kts 271°
2026-05-04 13:46 40.69437 -73.09764 6262 ft 250 kts 268°
2026-05-04 13:47 40.69402 -73.12046 5887 ft 247 kts 265°
2026-05-04 13:47 40.69289 -73.14298 5520 ft 246 kts 264°
2026-05-04 13:47 40.69177 -73.16510 5149 ft 245 kts 265°
2026-05-04 13:47 40.69091 -73.18747 4788 ft 244 kts 265°
2026-05-04 13:48 40.69015 -73.20979 4341 ft 243 kts 265°
2026-05-04 13:48 40.68945 -73.23191 3926 ft 240 kts 264°
2026-05-04 13:48 40.68872 -73.25355 3543 ft 233 kts 264°
2026-05-04 13:48 40.68781 -73.27473 3246 ft 231 kts 264°
2026-05-04 13:49 40.68697 -73.29585 3008 ft 229 kts 264°
2026-05-04 13:49 40.68624 -73.31676 3011 ft 231 kts 264°
2026-05-04 13:49 40.68548 -73.33753 3035 ft 229 kts 265°
2026-05-04 13:49 40.68897 -73.35818 3055 ft 238 kts 290°
2026-05-04 13:50 40.69676 -73.37760 3039 ft 240 kts 292°
2026-05-04 13:50 40.70674 -73.39541 3020 ft 251 kts 319°
2026-05-04 13:50 40.72194 -73.40732 3070 ft 257 kts 326°
2026-05-04 13:50 40.73790 -73.41797 3055 ft 257 kts 329°
2026-05-04 13:51 40.75413 -73.42761 3044 ft 256 kts 330°
2026-05-04 13:51 40.77053 -73.43688 3062 ft 257 kts 330°
2026-05-04 13:51 40.78712 -73.44607 3072 ft 259 kts 331°
2026-05-04 13:51 40.80379 -73.45452 3021 ft 257 kts 337°
2026-05-04 13:52 40.83860 -73.46634 2998 ft 261 kts 340°
2026-05-04 13:52 40.85619 -73.47168 2979 ft 259 kts 339°
2026-05-04 13:52 40.87139 -73.48237 2958 ft 243 kts 303°
2026-05-04 13:53 40.87765 -73.50183 3034 ft 228 kts 264°
2026-05-04 13:53 40.87308 -73.52128 3090 ft 224 kts 240°
2026-05-04 13:53 40.86518 -73.53883 3057 ft 220 kts 237°
2026-05-04 13:54 40.84296 -73.56694 3052 ft 222 kts 234°
2026-05-04 13:54 40.83426 -73.58349 3030 ft 223 kts 236°
2026-05-04 13:54 40.81717 -73.61778 2853 ft 222 kts 237°
2026-05-04 13:55 40.80825 -73.63433 2762 ft 221 kts 231°
2026-05-04 13:55 40.78735 -73.66450 2586 ft 223 kts 220°
2026-05-04 13:55 40.77445 -73.67607 2557 ft 225 kts 212°
2026-05-04 13:56 40.76072 -73.68609 2542 ft 226 kts 210°
2026-05-04 13:56 40.74676 -73.69559 2482 ft 227 kts 210°
2026-05-04 13:56 40.71897 -73.71442 1726 ft 213 kts 211°
2026-05-04 13:57 40.70632 -73.72340 1446 ft 202 kts 211°
2026-05-04 13:57 40.69396 -73.73235 1185 ft 204 kts 211°
2026-05-04 13:58 40.65613 -73.75946 375 ft 212 kts 208°
2026-05-04 13:58 40.63189 -73.77781 24 ft 118 kts 211°